Location: Shenandoah County Park
(38.9356°N, 78.4524°W)
Time: 14:01:31
(UTC-05:00)

Transit 2A - Pass Details

Date: 18 October 2025
Orbit: 591 x 954 km, 66.7° (Epoch: 07 November)

Event Time Altitude Azimuth Distance (km) Brightness Sun altitude
Rises 20:30:07 0° 249° (WSW) 2,996 10.1 -24.0°
Reaches altitude 10° 20:32:53 10° 266° (W) 2,147 9.3 -24.5°
Maximum altitude 20:36:30 20° 314° (NW) 1,641 8.3 -25.2°
Drops below altitude 10° 20:40:24 10° 2° (N) 2,332 8.6 -26.0°
Enters shadow 20:43:18 - 17° (NNE) 3,246 9.2 -26.5°
